Regional Weather Roundup
Issued by NWS

Home | Current Version | Previous Version | Graphics & Text | Print | Product List | Glossary On
Versions: 1 2 3 4 5 6 7 8 9 10 11 12 13 14 15 16 17 18 19 20 21 22 23 24 25 26 27 28 29 30 31 32 33 34 35 36 37 38 39 40 41 42 43 44 45 46 47 48 49 50
000
ASUS45 KBOI 120310
RWRID

IDAHO REGIONAL WEATHER ROUNDUP
NATIONAL WEATHER SERVICE BOISE ID
800 PM MST MON DEC 11 2017

NOTE: "FAIR" INDICATES FEW OR NO CLOUDS BELOW 12000 FEET
WITH NO SIGNIFICANT WEATHER AND/OR OBSTRUCTIONS TO VISIBILITY

IDZ012-014-120400-
SOUTHWEST IDAHO


CITY           SKY/WX    TMP DP  RH WIND       PRES   REMARKS
BOISE          CLOUDY    25  21  85 CALM      30.65R
CALDWELL       NOT AVBL
MOUNTAIN HOME  CLOUDY    24  24 100 S3        30.64S
$$

IDZ016-017-120400-
SOUTHCENTRAL IDAHO


CITY           SKY/WX    TMP DP  RH WIND       PRES   REMARKS
BURLEY         CLEAR     23  20  88 W6        30.56R WCI  16
JEROME         FOG       20  19  96 W5        30.59R VSB 1/4 WCI  13
TWIN FALLS     FOG       22  20  92 SW5       30.58S VSB<1/4 WCI  16
$$

IDZ019>023-120400-
SOUTHEAST IDAHO


CITY           SKY/WX    TMP DP  RH WIND       PRES   REMARKS
IDAHO FALLS    CLOUDY    18  15  88 CALM      30.56R
POCATELLO      CLOUDY    18  13  80 CALM      30.57R
REXBURG        CLOUDY    20  15  81 CALM      30.55R
$$

IDZ006-010-011-018-031-032-120400-
CENTRAL IDAHO MOUNTAINS


CITY           SKY/WX    TMP DP  RH WIND       PRES   REMARKS
MCCALL         PTCLDY    18  15  88 CALM      30.51S
HAILEY         CLEAR     30  19  64 NW3       30.55S
STANLEY          N/A     11   7  84 CALM      30.59R
SALMON         CLOUDY    16  14  92 CALM      30.69S
CHALLIS        CLEAR     13   8  81 CALM      30.60R
$$

IDZ002-004-006-007-026-120400-
NORTHERN IDAHO


CITY           SKY/WX    TMP DP  RH WIND       PRES   REMARKS
LEWISTON       CLOUDY    29  25  85 SW8       30.62S WCI  21
LOWELL           N/A     26  25  96 CALM      30.60R
COEUR D`ALENE  CLEAR     22  20  92 CALM      30.56S
MULLAN PASS    CLEAR     40   4  22 S6        30.45S
$$



USA.gov is the U.S. government's official web portal to all federal, state and local government web resources and services.